Powrót do katalogu

INTELSAT 905

AktywnyŁącznośćGEO
NORAD 27438·PAYLOAD· XX

Wystrzelony Jun 5, 2002 z Guiana Space Centre

Loading…

TLE

ŚwieżeSource: CelesTrak SupGP

Epoka: Sep 14, 2026, 00:00 UTC

1 27438C 02027A   26257.00000000  .00000186  00000+0  00000+0 0  2577
2 27438   6.9712  68.6934 0000650 274.2362 232.8860  1.00263194    10

Śledź INTELSAT 905 w czasie rzeczywistym z AllMySat

Download on the App Store